Regional Weather Roundup
Issued by NWS

Home | Current Version | Previous Version | Text Only | Print | Product List | Glossary Off
Versions: 1 2 3 4 5 6 7 8 9 10 11 12 13 14 15 16 17 18 19 20 21 22 23 24 25 26 27 28 29 30 31 32 33 34 35 36 37 38 39 40 41 42 43 44 45 46 47 48 49 50

000
ASUS43 KDMX 290207
RWRIA

WEATHER ROUNDUP FOR IOWA
NATIONAL WEATHER SERVICE DES MOINES IA
900 PM CDT FRI AUG 28 2015

NOTE: "FAIR" INDICATES FEW OR NO CLOUDS BELOW 12,000 FEET WITH NO
SIGNIFICANT WEATHER AND/OR OBSTRUCTIONS TO VISIBILITY.

* - THESE STATIONS ARE NOT NWS STATIONS...THUS NOT UNDER NWS
QUALITY CONTROL.  THEY ALSO DO NOT REPORT WEATHER SUCH
AS PRECIPITATION OR FOG.

IAZ001>003-012>014-020>022-031>034-043>046-290300-
   NORTHWEST IOWA

CITY           SKY/WX    TMP DP  RH WIND       PRES   REMARKS
CARROLL *      CLOUDY    64  64 100 N12       29.91R FOG
CHEROKEE *     CLOUDY    61  61 100 N9G16     29.98R
DENISON *      CLOUDY    63  63 100 N10G16    29.91R FOG
LE MARS *      CLOUDY    63  61  94 N9G16     30.00R
ORANGE CITY *  CLOUDY    61  59  94 NE7       30.00R
SHELDON *      CLOUDY    61  59  94 NE9G16    29.99R
SIOUX CITY     CLOUDY    64  58  80 N14       29.97R
SPENCER        CLOUDY    61  56  83 NE9       29.99R
STORM LAKE *   CLOUDY    59  59 100 NE13G20   29.96R
$$

IAZ055>058-069>071-079>083-090>094-290300-
   SOUTHWEST IOWA

CITY           SKY/WX    TMP DP  RH WIND       PRES   REMARKS
ATLANTIC *     CLOUDY    68  68 100 CALM      29.89R
AUDUBON *      CLOUDY    68  66  94 N6        29.91R FOG
CLARINDA *     CLOUDY    70  70 100 CALM      29.92R
COUNCIL BLFS *   N/A     66  64  94 NW10      29.92R
CRESTON *      CLOUDY    70  70 100 CALM      29.92R FOG
HARLAN  *      CLOUDY    66 -36   1 N8        29.94R
LAMONI         CLOUDY    73  66  78 S8        29.91R
RED OAK *      CLOUDY    70  66  88 NW3       29.91R
SHENANDOAH *   MOCLDY    70  66  88 CALM      29.91R
$$

IAZ047>049-059>061-072>074-084-290300-
   CENTRAL IOWA

CITY           SKY/WX    TMP DP  RH WIND       PRES   REMARKS
AMES           LGT RAIN  68  68 100 CALM      29.89R FOG
ANKENY *       CLOUDY    70  70 100 SE5       29.89R
CHARITON *     CLOUDY    72  66  83 S10G18    29.91R
DES MOINES     CLOUDY    73  67  81 SE5       29.89R
GRINNELL*      LGT RAIN  64  64 100 E7        29.93R
KNOXVILLE *    CLOUDY    70  66  88 S8        29.89R
MARSHALLTOWN   LGT RAIN  66  64  93 SE12      29.91R
PELLA *        CLOUDY    68  68 100 SE3       29.92R
PERRY *        CLOUDY    72  70  94 CALM      29.88R FOG
$$

IAZ004>006-015-016-023>025-035-036-290300-
   NORTH CENTRAL IOWA

CITY           SKY/WX    TMP DP  RH WIND       PRES   REMARKS
ALGONA *       CLOUDY    59  59 100 NE10      29.98R
CLARION *      CLOUDY    61  59  94 NE13      29.93R FOG
ESTHERVILLE    CLOUDY    59  56  89 NE8       30.00R
FORT DODGE *   CLOUDY    61  57  88 N8        29.94R
MASON CITY     CLOUDY    59  58  96 NE14      29.98R FOG
FOREST CITY *  CLOUDY    59  59 100 NE8G16    29.98R
IOWA FALLS *   DRIZZLE   64  63  94 NE6       29.92R
$$

IAZ007>011-017>019-026>030-037>042-050>054-066-290300-
   NORTHEAST IOWA

CITY           SKY/WX    TMP DP  RH WIND       PRES   REMARKS
CEDAR RAPIDS   TSTM      65  65 100 SE12      29.95S
CHARLES CITY * LGT RAIN  59  59 100 NE12G17   29.97R
CLINTON *      CLOUDY    66  63  88 N7        30.04R
DECORAH *      LGT RAIN  59  59 100 NE9       30.00S
DUBUQUE        RAIN      64  32  30 SE15G22   30.01R
MONTICELLO *   LGT RAIN  64  64 100 SE10G20   29.97F
OELWEIN *      LGT RAIN  64  63  94 SE13G20   29.95S
WATERLOO       RAIN      65  63  93 SE10      29.92R FOG
$$

IAZ064-065-067-068-078-290300-
   EAST CENTRAL IOWA

CITY           SKY/WX    TMP DP  RH WIND       PRES   REMARKS
DAVENPORT      CLOUDY    67  64  90 N7        30.00R
IOWA CITY      HVY RAIN  67  66  97 E9        29.99R FOG
MT. PLEASANT * CLOUDY    72  59  64 SE9       29.95R
MUSCATINE *    CLOUDY    70  63  78 SE7       29.97R
QUAD CITIES    CLOUDY    69  62  78 CALM      29.99R
$$

IAZ062-063-075>077-085>089-095>099-290300-
   SOUTHEAST IOWA

CITY           SKY/WX    TMP DP  RH WIND       PRES   REMARKS
BURLINGTON     CLOUDY    71  63  75 S13       29.96R
FAIRFIELD *    CLOUDY    70  63  78 S10       29.93R
FORT MADISON * CLOUDY    70  63  78 S8        29.98R
KEOKUK *       CLOUDY    72  63  73 SE7       29.96S
OSKALOOSA *    CLOUDY    70  63  78 S7        29.92R
CENTERVILLE *  PTCLDY    70  66  88 S8        29.94S
OTTUMWA        CLOUDY    70  64  81 S13       29.90R
WASHINGTON *     N/A    N/A N/A N/A MISG        N/A
$$

ABBREVIATIONS USED IN REMARKS
   TC - TEMPERATURES IN CELSIUS
  WCI - WIND CHILL INDEX
   HX - HEAT INDEX
  VSB - VISIBILITY
$$



USA.gov is the U.S. government's official web portal to all federal, state and local government web resources and services.